TimeCST,TemperatureF,Dew PointF,Humidity,Sea Level PressureIn,VisibilityMPH,Wind Direction,Wind SpeedMPH,Gust SpeedMPH,PrecipitationIn,Events,Conditions,WindDirDegrees,DateUTC
12:15 AM,39.2,33.8,81,30.24,10.0,South,4.6,-,N/A,,Clear,180,2012-11-30 06:15:00
12:35 AM,39.2,32.0,75,30.24,10.0,South,4.6,-,N/A,,Clear,180,2012-11-30 06:35:00
12:55 AM,37.4,32.0,81,30.23,10.0,South,5.8,-,N/A,,Clear,180,2012-11-30 06:55:00
1:15 AM,35.6,30.2,81,30.23,10.0,South,5.8,-,N/A,,Clear,180,2012-11-30 07:15:00
1:35 AM,37.4,32.0,81,30.23,10.0,Calm,Calm,-,N/A,,Clear,0,2012-11-30 07:35:00
1:56 AM,39.2,33.8,81,30.23,10.0,South,4.6,-,N/A,,Clear,180,2012-11-30 07:56:00
2:15 AM,37.4,32.0,81,30.24,10.0,SSW,5.8,-,N/A,,Clear,210,2012-11-30 08:15:00
2:35 AM,39.2,33.8,81,30.25,10.0,SSW,3.5,-,N/A,,Clear,210,2012-11-30 08:35:00
3:15 AM,35.6,30.2,81,30.24,10.0,South,4.6,-,N/A,,Clear,170,2012-11-30 09:15:00
3:35 AM,35.6,32.0,87,30.25,10.0,South,5.8,-,N/A,,Clear,180,2012-11-30 09:35:00
4:15 AM,35.6,30.2,81,30.24,10.0,South,6.9,-,N/A,,Clear,180,2012-11-30 10:15:00
4:35 AM,33.8,30.2,87,30.23,10.0,SSE,10.4,-,N/A,,Clear,160,2012-11-30 10:35:00
4:55 AM,35.6,30.2,81,30.23,10.0,South,8.1,-,N/A,,Clear,170,2012-11-30 10:55:00
5:16 AM,35.6,32.0,87,30.23,10.0,South,8.1,-,N/A,,Clear,170,2012-11-30 11:16:00
5:35 AM,35.6,32.0,87,30.23,10.0,South,8.1,-,N/A,,Clear,180,2012-11-30 11:35:00
5:55 AM,37.4,33.8,87,30.22,10.0,South,8.1,-,N/A,,Clear,170,2012-11-30 11:55:00
6:15 AM,37.4,33.8,87,30.23,10.0,South,9.2,-,N/A,,Clear,170,2012-11-30 12:15:00
6:35 AM,37.4,33.8,87,30.23,10.0,South,9.2,-,N/A,,Clear,170,2012-11-30 12:35:00
6:55 AM,37.4,33.8,87,30.22,10.0,South,10.4,-,N/A,,Clear,170,2012-11-30 12:55:00
7:15 AM,39.2,35.6,87,30.23,10.0,South,10.4,-,N/A,,Clear,180,2012-11-30 13:15:00
7:55 AM,41.0,35.6,81,30.24,10.0,South,12.7,-,N/A,,Partly Cloudy,180,2012-11-30 13:55:00
8:15 AM,42.8,35.6,76,30.25,10.0,South,12.7,-,N/A,,Clear,190,2012-11-30 14:15:00
8:35 AM,44.6,37.4,76,30.24,10.0,South,11.5,-,N/A,,Clear,190,2012-11-30 14:35:00
8:56 AM,46.4,39.2,76,30.24,10.0,South,11.5,-,N/A,,Clear,190,2012-11-30 14:56:00
9:15 AM,48.2,39.2,71,30.23,10.0,South,13.8,-,N/A,,Clear,190,2012-11-30 15:15:00
9:35 AM,48.2,39.2,71,30.24,10.0,SSW,13.8,-,N/A,,Clear,200,2012-11-30 15:35:00
10:15 AM,51.8,39.2,62,30.24,10.0,South,11.5,-,N/A,,Scattered Clouds,190,2012-11-30 16:15:00
10:35 AM,53.6,39.2,58,30.24,10.0,SSW,13.8,-,N/A,,Mostly Cloudy,200,2012-11-30 16:35:00
10:55 AM,55.4,39.2,54,30.23,10.0,SSW,13.8,-,N/A,,Mostly Cloudy,200,2012-11-30 16:55:00
11:16 AM,55.4,41.0,58,30.22,10.0,SSW,13.8,-,N/A,,Overcast,200,2012-11-30 17:16:00
11:35 AM,55.4,41.0,58,30.21,10.0,South,15.0,-,N/A,,Mostly Cloudy,190,2012-11-30 17:35:00
11:55 AM,57.2,42.8,59,30.20,10.0,SSW,12.7,-,N/A,,Mostly Cloudy,200,2012-11-30 17:55:00
12:35 PM,60.8,44.6,55,30.18,10.0,SSW,13.8,-,N/A,,Overcast,200,2012-11-30 18:35:00
12:55 PM,60.8,44.6,55,30.18,10.0,SSW,12.7,-,N/A,,Overcast,200,2012-11-30 18:55:00
1:15 PM,60.8,44.6,55,30.17,10.0,South,16.1,-,N/A,,Overcast,190,2012-11-30 19:15:00
1:35 PM,60.8,44.6,55,30.17,10.0,SSW,17.3,-,N/A,,Overcast,200,2012-11-30 19:35:00
2:15 PM,57.2,44.6,63,30.16,10.0,South,17.3,-,N/A,,Overcast,180,2012-11-30 20:15:00
2:35 PM,57.2,46.4,67,30.16,10.0,South,15.0,-,N/A,,Overcast,180,2012-11-30 20:35:00
2:55 PM,57.2,46.4,67,30.16,10.0,South,17.3,-,N/A,,Overcast,190,2012-11-30 20:55:00
3:16 PM,57.2,46.4,67,30.16,10.0,South,15.0,-,N/A,,Overcast,190,2012-11-30 21:16:00
3:35 PM,55.4,46.4,72,30.17,10.0,South,12.7,-,N/A,,Overcast,190,2012-11-30 21:35:00
3:55 PM,55.4,46.4,72,30.17,10.0,South,11.5,-,N/A,,Overcast,190,2012-11-30 21:55:00
4:35 PM,55.4,48.2,77,30.17,10.0,South,9.2,-,N/A,,Overcast,190,2012-11-30 22:35:00
4:55 PM,53.6,48.2,82,30.16,10.0,South,9.2,-,N/A,,Mostly Cloudy,190,2012-11-30 22:55:00
5:35 PM,51.8,46.4,82,30.16,10.0,South,9.2,-,N/A,,Mostly Cloudy,190,2012-11-30 23:35:00
6:15 PM,51.8,48.2,88,30.17,8.0,SSW,5.8,-,N/A,,Overcast,200,2012-12-01 00:15:00
6:35 PM,51.8,46.4,82,30.17,9.0,SSW,5.8,-,N/A,,Overcast,200,2012-12-01 00:35:00
6:55 PM,51.8,48.2,88,30.18,8.0,SSW,3.5,-,N/A,,Overcast,200,2012-12-01 00:55:00
7:15 PM,51.8,48.2,88,30.18,8.0,South,3.5,-,N/A,,Overcast,180,2012-12-01 01:15:00
7:55 PM,53.6,48.2,82,30.18,9.0,SSE,5.8,-,N/A,,Overcast,150,2012-12-01 01:55:00
8:15 PM,53.6,48.2,82,30.18,8.0,South,8.1,-,N/A,,Overcast,170,2012-12-01 02:15:00
9:15 PM,53.6,50.0,88,30.18,9.0,South,6.9,-,N/A,,Overcast,190,2012-12-01 03:15:00
9:35 PM,53.6,50.0,88,30.18,9.0,South,6.9,-,N/A,,Overcast,190,2012-12-01 03:35:00
9:56 PM,53.6,50.0,88,30.18,9.0,South,5.8,-,N/A,,Overcast,180,2012-12-01 03:56:00
10:15 PM,53.6,50.0,88,30.19,9.0,South,6.9,-,N/A,,Overcast,180,2012-12-01 04:15:00
10:35 PM,55.4,50.0,82,30.19,10.0,South,10.4,-,N/A,,Overcast,170,2012-12-01 04:35:00
11:15 PM,55.4,48.2,77,30.19,10.0,South,9.2,-,N/A,,Overcast,180,2012-12-01 05:15:00
11:35 PM,55.4,48.2,77,30.18,10.0,South,10.4,-,N/A,,Overcast,170,2012-12-01 05:35:00
11:55 PM,55.4,48.2,77,30.18,10.0,South,10.4,-,N/A,,Overcast,180,2012-12-01 05:55:00